Location: Arcones
(41.1182°N, 3.7238°W)
Time: 23:54:09
(UTC+00:00)

COSMO-SKYMED 1 - Pass Details

Date: 11 December 2025
Orbit: 578 x 580 km, 97.9° (Epoch: 14 January)

Event Time Altitude Azimuth Distance (km) Brightness Sun altitude
Exits shadow 17:52:30 17° 58° (ENE) 1,476 3.9 -12.1°
Maximum altitude 17:54:22 23° 95° (E) 1,235 3.6 -12.4°
Drops below altitude 10° 17:57:40 10° 149° (SSE) 1,886 4.9 -13.0°
Sets 18:00:09 0° 164° (SSE) 2,779 6.0 -13.5°
